Hourly Data Report for September 25, 2017

All times are specified in Local Standard Time (LST). Add 1 hour to adjust for Daylight Saving Time where and when it is observed.

WINNIPEG A CS
MANITOBA

49°55'00.000" N
97°14'58.000" W
238.70 m
502S001
71849
XWG

Download Data

Hourly Data (September 2017)
Hourly Data Report for September 25, 2017
Temp Definition
°C
Dew Point Temp Definition
°C
Rel Hum Definition
%
Wind Dir Definition
10's deg

Wind Spd Definition
km/h
Visibility Definition
km
Stn Press Definition
kPa
Hmdx Definition


Wind Chill Definition


Weather Definition


TIME
00:00 8.8 7.5 92 33 13   98.87     LegendNANA
01:00 8.9 7.8 93 33 14   98.92     LegendNANA
02:00 8.5 7.2 91 32 21   98.95     LegendNANA
03:00 8.5 6.7 89 33 21   98.99     LegendNANA
04:00 8.1 6.6 90 33 18   99.05     LegendNANA
05:00 7.8 6.4 91 32 16   99.09     LegendNANA
06:00 7.8 6.3 90 35 14   99.14     LegendNANA
07:00 7.6 6.4 92 32 13   99.19     LegendNANA
08:00 8.4 6.7 89 34 15   99.23     LegendNANA
09:00 9.0 6.5 85 34 15   99.29     LegendNANA
10:00 10.1 6.1 76 35 15   99.28     LegendNANA
11:00 10.9 6.2 73 35 16   99.27     LegendNANA
12:00 10.9 6.0 72 1 18   99.28     LegendNANA
13:00 11.5 6.3 71 36 16   99.25     LegendNANA
14:00 11.2 6.8 74 3 16   99.24     LegendNANA
15:00 11.4 6.6 72 3 15   99.24     LegendNANA
16:00 11.5 6.1 70 2 16   99.25     LegendNANA
17:00 11.6 5.3 66 2 17   99.25     LegendNANA
18:00 10.6 5.9 72 3 13   99.28     LegendNANA
19:00 10.2 6.4 77 2 9   99.29     LegendNANA
20:00 9.9 6.5 80 2 11   99.25     LegendNANA
21:00 9.6 6.3 80 1 12   99.28     LegendNANA
22:00 9.4 6.1 80 3 10   99.24     LegendNANA
23:00 9.1 6.6 84 3 9   99.22     LegendNANA

Notes on Data Quality.

Legend

  • E = Estimated
  • M = Missing
  • NA = Not Available
  • ‡ = Partner data that is not subject to review by the National Climate Archives
Date modified: